Retour au catalogue

CZ-4C R/B

ActifLEO
NORAD 47696·ROCKET BODY·🇨🇳 China

Lancé Feb 24, 2021 depuis Jiuquan Satellite Launch Center

Loading…

Prochains Passages (prochaines 24 heures)

TLE

FraisSource: Space-Track

Époque: Sep 14, 2026, 14:15 UTC

1 47696U 21014F   26257.59432839 -.00000055  00000-0  34472-4 0  9990
2 47696  63.4510 123.0689 0306052   1.3162 358.8613 13.68601081277588

Suivez CZ-4C R/B en temps réel avec AllMySat

Download on the App Store